| time (UTC) | temp F | wind direction | speed MPH | gust MPH | rain 1hr in | rain 24hr in | rain mn in | humidity % | barometer mb |
| 20260831033728 | 76 | 272 | 1.0 | 3.0 | 0.00 | 0.03 | 0.03 | 81 | 1017.8 |
| 20260831032229 | 76 | 303 | 1.0 | 8.0 | 0.00 | 0.03 | 0.03 | 82 | 1018.0 |
| 20260831031727 | 76 | 267 | 2.0 | 8.0 | 0.00 | 0.03 | 0.03 | 82 | 1018.0 |
| 20260831031228 | 76 | 355 | 2.0 | 3.0 | 0.00 | 0.03 | 0.03 | 82 | 1017.9 |
| 20260831030728 | 76 | 334 | 1.0 | 3.0 | 0.00 | 0.03 | 0.03 | 82 | 1017.8 |
| 20260831030228 | 76 | 309 | 1.0 | 3.0 | 0.01 | 0.03 | 0.03 | 82 | 1017.7 |
| 20260831025728 | 76 | 239 | 1.0 | 2.0 | 0.01 | 0.03 | 0.03 | 82 | 1017.7 |
| 20260831025227 | 76 | 239 | 0.0 | 2.0 | 0.02 | 0.03 | 0.03 | 83 | 1017.8 |
| 20260831024728 | 76 | 238 | 0.0 | 2.0 | 0.02 | 0.03 | 0.03 | 83 | 1017.9 |
| 20260831024227 | 77 | 238 | 0.0 | 3.0 | 0.02 | 0.03 | 0.03 | 82 | 1018.0 |
| 20260831023228 | 77 | 235 | 1.0 | 3.0 | 0.03 | 0.03 | 0.03 | 82 | 1018.3 |
| 20260831022728 | 77 | 258 | 2.0 | 3.0 | 0.03 | 0.03 | 0.03 | 81 | 1018.3 |
| 20260831022227 | 77 | 306 | 1.0 | 6.0 | 0.03 | 0.03 | 0.03 | 81 | 1018.4 |
| 20260831021728 | 77 | 254 | 1.0 | 7.0 | 0.03 | 0.03 | 0.03 | 80 | 1018.4 |
| 20260831021228 | 77 | 250 | 2.0 | 8.0 | 0.03 | 0.03 | 0.03 | 80 | 1018.5 |
| 20260831020728 | 78 | 269 | 2.0 | 8.0 | 0.03 | 0.03 | 0.03 | 80 | 1018.5 |
| 20260831020227 | 78 | 242 | 1.0 | 8.0 | 0.02 | 0.02 | 0.02 | 80 | 1018.5 |
| 20260831015228 | 79 | 252 | 1.0 | 3.0 | 0.01 | 0.01 | 0.01 | 79 | 1018.4 |
| 20260831014228 | 79 | 247 | 1.0 | 3.0 | 0.01 | 0.01 | 0.01 | 78 | 1018.3 |
| 20260831013728 | 79 | 254 | 1.0 | 2.0 | 0.00 | 0.00 | 0.00 | 78 | 1018.3 |
| 20260831013228 | 79 | 254 | 1.0 | 2.0 | 0.00 | 0.00 | 0.00 | 77 | 1018.2 |
| 20260831012728 | 79 | 253 | 0.0 | 3.0 | 0.00 | 0.00 | 0.00 | 77 | 1018.1 |
| 20260831011727 | 79 | 240 | 0.0 | 2.0 | 0.00 | 0.00 | 0.00 | 76 | 1018.1 |
| 20260831011228 | 79 | 236 | 0.0 | 3.0 | 0.00 | 0.00 | 0.00 | 76 | 1018.1 |
| 20260831010727 | 79 | 232 | 2.0 | 3.0 | 0.00 | 0.00 | 0.00 | 76 | 1018.1 |
| 20260831010228 | 79 | 266 | 1.0 | 3.0 | 0.00 | 0.00 | 0.00 | 75 | 1017.9 |
| 20260831005727 | 80 | 259 | 1.0 | 3.0 | 0.00 | 0.00 | 0.00 | 75 | 1017.9 |
| 20260831005227 | 80 | 232 | 1.0 | 3.0 | 0.00 | 0.00 | 0.00 | 75 | 1017.8 |
| 20260831004228 | 80 | 219 | 1.0 | 3.0 | 0.00 | 0.00 | 0.00 | 74 | 1017.7 |
| 20260831003727 | 80 | 232 | 0.0 | 3.0 | 0.00 | 0.00 | 0.00 | 74 | 1017.7 |
| 20260831002728 | 80 | 252 | 2.0 | 5.0 | 0.00 | 0.00 | 0.00 | 73 | 1017.6 |
| 20260831002228 | 80 | 239 | 2.0 | 5.0 | 0.00 | 0.00 | 0.00 | 72 | 1017.5 |
| 20260831001727 | 80 | 177 | 2.0 | 5.0 | 0.00 | 0.00 | 0.00 | 72 | 1017.4 |
| 20260831000728 | 80 | 211 | 1.0 | 3.0 | 0.00 | 0.00 | 0.00 | 72 | 1017.3 |
| 20260831000228 | 80 | 186 | 2.0 | 5.0 | 0.00 | 0.00 | 0.00 | 71 | 1017.3 |
| 20260830235728 | 80 | 230 | 2.0 | 5.0 | 0.00 | 0.00 | 0.00 | 71 | 1017.2 |
| 20260830235228 | 80 | 267 | 1.0 | 3.0 | 0.00 | 0.00 | 0.00 | 71 | 1017.1 |
| 20260830234728 | 81 | 239 | 1.0 | 3.0 | 0.00 | 0.00 | 0.00 | 71 | 1017.1 |
| 20260830234228 | 81 | 169 | 1.0 | 3.0 | 0.00 | 0.00 | 0.00 | 71 | 1017.1 |
| 20260830233728 | 81 | 224 | 2.0 | 6.0 | 0.00 | 0.00 | 0.00 | 71 | 1017.0 |
| 20260830233227 | 81 | 217 | 2.0 | 6.0 | 0.00 | 0.00 | 0.00 | 71 | 1017.0 |
| 20260830232727 | 81 | 175 | 2.0 | 7.0 | 0.00 | 0.00 | 0.00 | 71 | 1016.9 |
| 20260830232227 | 81 | 235 | 3.0 | 8.0 | 0.00 | 0.00 | 0.00 | 70 | 1016.9 |
| 20260830231727 | 81 | 221 | 2.0 | 8.0 | 0.00 | 0.00 | 0.00 | 70 | 1017.0 |
| 20260830231227 | 81 | 202 | 3.0 | 8.0 | 0.00 | 0.00 | 0.00 | 70 | 1017.0 |
| 20260830230728 | 81 | 233 | 1.0 | 5.0 | 0.00 | 0.00 | 0.00 | 70 | 1017.0 |
| 20260830225816 | 81 | 203 | 2.0 | 5.0 | 0.00 | 0.00 | 0.00 | 69 | 1017.0 |
| 20260830224326 | 81 | 157 | 2.0 | 5.0 | 0.00 | 0.00 | 0.00 | 69 | 1017.0 |
| 20260830223838 | 81 | 232 | 2.0 | 5.0 | 0.00 | 0.00 | 0.00 | 69 | 1017.0 |
| 20260830222727 | 81 | 173 | 1.0 | 7.0 | 0.00 | 0.00 | 0.00 | 69 | 1016.9 |
| 20260830222227 | 81 | 196 | 1.0 | 7.0 | 0.00 | 0.00 | 0.00 | 69 | 1017.1 |
| 20260830221227 | 81 | 153 | 3.0 | 6.0 | 0.00 | 0.00 | 0.00 | 69 | 1017.1 |
| 20260830220727 | 81 | 187 | 2.0 | 6.0 | 0.00 | 0.00 | 0.00 | 69 | 1017.1 |
| 20260830220227 | 81 | 175 | 2.0 | 3.0 | 0.00 | 0.00 | 0.00 | 68 | 1017.3 |
| 20260830215227 | 82 | 246 | 1.0 | 7.0 | 0.00 | 0.00 | 0.00 | 68 | 1017.2 |
| 20260830214727 | 82 | 242 | 3.0 | 7.0 | 0.00 | 0.00 | 0.00 | 68 | 1017.2 |
| 20260830214227 | 82 | 153 | 3.0 | 7.0 | 0.00 | 0.00 | 0.00 | 68 | 1017.1 |
| 20260830213727 | 82 | 142 | 2.0 | 10.0 | 0.00 | 0.00 | 0.00 | 67 | 1017.0 |
| 20260830213227 | 82 | 133 | 3.0 | 10.0 | 0.00 | 0.00 | 0.00 | 67 | 1017.2 |
| 20260830212727 | 82 | 184 | 3.0 | 9.0 | 0.00 | 0.00 | 0.00 | 67 | 1017.1 |
| 20260830212227 | 82 | 198 | 4.0 | 9.0 | 0.00 | 0.00 | 0.00 | 67 | 1017.0 |
| 20260830211727 | 82 | 223 | 3.0 | 12.0 | 0.00 | 0.00 | 0.00 | 67 | 1017.1 |
| 20260830211227 | 82 | 198 | 3.0 | 12.0 | 0.00 | 0.00 | 0.00 | 67 | 1017.2 |
| 20260830210727 | 82 | 172 | 5.0 | 10.0 | 0.00 | 0.00 | 0.00 | 67 | 1017.1 |
| 20260830210227 | 82 | 292 | 5.0 | 10.0 | 0.00 | 0.00 | 0.00 | 66 | 1017.1 |
| 20260830205727 | 82 | 174 | 3.0 | 12.0 | 0.00 | 0.00 | 0.00 | 67 | 1017.3 |
| 20260830205227 | 82 | 175 | 2.0 | 12.0 | 0.00 | 0.00 | 0.00 | 67 | 1017.3 |
| 20260830204728 | 81 | 173 | 3.0 | 8.0 | 0.00 | 0.00 | 0.00 | 67 | 1017.4 |
| 20260830204228 | 81 | 200 | 2.0 | 8.0 | 0.00 | 0.00 | 0.00 | 68 | 1017.3 |
| 20260830203227 | 81 | 161 | 3.0 | 9.0 | 0.00 | 0.00 | 0.00 | 68 | 1017.5 |
| 20260830202728 | 81 | 257 | 4.0 | 9.0 | 0.00 | 0.00 | 0.00 | 67 | 1017.6 |
| 20260830202227 | 81 | 255 | 3.0 | 12.0 | 0.00 | 0.00 | 0.00 | 67 | 1017.6 |
| 20260830201706 | 81 | 167 | 5.0 | 12.0 | 0.00 | 0.00 | 0.00 | 67 | 1017.6 |
| 20260830201227 | 81 | 150 | 2.0 | 12.0 | 0.00 | 0.00 | 0.00 | 67 | 1017.7 |
| 20260830200727 | 81 | 279 | 3.0 | 12.0 | 0.00 | 0.00 | 0.00 | 67 | 1017.7 |
| 20260830200227 | 81 | 153 | 2.0 | 8.0 | 0.00 | 0.00 | 0.00 | 67 | 1017.7 |
| 20260830195727 | 81 | 191 | 2.0 | 8.0 | 0.00 | 0.00 | 0.00 | 67 | 1017.8 |
| 20260830195228 | 81 | 232 | 3.0 | 8.0 | 0.00 | 0.00 | 0.00 | 67 | 1017.9 |
| 20260830194727 | 81 | 155 | 5.0 | 9.0 | 0.00 | 0.00 | 0.00 | 67 | 1017.9 |
| 20260830194227 | 81 | 210 | 4.0 | 9.0 | 0.00 | 0.00 | 0.00 | 66 | 1017.9 |
| 20260830193727 | 81 | 178 | 4.0 | 9.0 | 0.00 | 0.00 | 0.00 | 66 | 1018.0 |
| 20260830193227 | 81 | 147 | 3.0 | 9.0 | 0.00 | 0.00 | 0.00 | 66 | 1017.9 |
| 20260830192728 | 81 | 269 | 3.0 | 8.0 | 0.00 | 0.00 | 0.00 | 66 | 1018.0 |
| 20260830192227 | 81 | 130 | 3.0 | 8.0 | 0.00 | 0.00 | 0.00 | 66 | 1018.1 |
| 20260830191727 | 80 | 183 | 3.0 | 7.0 | 0.00 | 0.00 | 0.00 | 67 | 1018.1 |
| 20260830191228 | 80 | 136 | 3.0 | 10.0 | 0.00 | 0.00 | 0.00 | 67 | 1018.3 |
| 20260830190727 | 80 | 163 | 3.0 | 10.0 | 0.00 | 0.00 | 0.00 | 67 | 1018.4 |
| 20260830190228 | 80 | 148 | 2.0 | 6.0 | 0.00 | 0.00 | 0.00 | 67 | 1018.5 |
| 20260830185727 | 80 | 208 | 1.0 | 6.0 | 0.00 | 0.00 | 0.00 | 67 | 1018.6 |
| 20260830185227 | 80 | 159 | 2.0 | 6.0 | 0.00 | 0.00 | 0.00 | 67 | 1018.7 |
| 20260830184227 | 80 | 153 | 2.0 | 6.0 | 0.00 | 0.00 | 0.00 | 66 | 1018.8 |
| 20260830183727 | 80 | 202 | 2.0 | 7.0 | 0.00 | 0.00 | 0.00 | 66 | 1018.9 |
| 20260830183226 | 80 | 213 | 1.0 | 9.0 | 0.00 | 0.00 | 0.00 | 67 | 1018.9 |
| 20260830182727 | 80 | 203 | 3.0 | 9.0 | 0.00 | 0.00 | 0.00 | 67 | 1018.9 |
| 20260830181726 | 79 | 187 | 3.0 | 8.0 | 0.00 | 0.00 | 0.00 | 67 | 1019.0 |
| 20260830181227 | 79 | 226 | 3.0 | 8.0 | 0.00 | 0.00 | 0.00 | 67 | 1019.1 |
| 20260830180726 | 79 | 142 | 1.0 | 10.0 | 0.00 | 0.00 | 0.00 | 67 | 1019.1 |
| 20260830180227 | 79 | 101 | 3.0 | 10.0 | 0.00 | 0.00 | 0.00 | 67 | 1019.1 |
| 20260830175227 | 79 | 242 | 3.0 | 12.0 | 0.00 | 0.00 | 0.00 | 67 | 1019.4 |
| 20260830174227 | 80 | 204 | 5.0 | 13.0 | 0.00 | 0.00 | 0.00 | 65 | 1019.4 |
| 20260830173727 | 80 | 152 | 5.0 | 10.0 | 0.00 | 0.00 | 0.00 | 65 | 1019.4 |
| 20260830173227 | 80 | 174 | 4.0 | 10.0 | 0.00 | 0.00 | 0.00 | 65 | 1019.3 |
| 20260830172727 | 80 | 115 | 3.0 | 12.0 | 0.00 | 0.00 | 0.00 | 65 | 1019.3 |
| 20260830172228 | 80 | 104 | 4.0 | 12.0 | 0.00 | 0.00 | 0.00 | 64 | 1019.3 |
| 20260830171727 | 81 | 209 | 3.0 | 10.0 | 0.00 | 0.00 | 0.00 | 62 | 1019.5 |
| 20260830170227 | 80 | 212 | 5.0 | 13.0 | 0.00 | 0.00 | 0.00 | 61 | 1019.7 |
| 20260830165727 | 79 | 151 | 4.0 | 13.0 | 0.00 | 0.00 | 0.00 | 62 | 1019.7 |
| 20260830165226 | 78 | 133 | 3.0 | 12.0 | 0.00 | 0.00 | 0.00 | 63 | 1019.6 |
| 20260830163727 | 78 | 133 | 3.0 | 12.0 | 0.00 | 0.00 | 0.00 | 62 | 1019.9 |
| 20260830162727 | 78 | 163 | 6.0 | 13.0 | 0.00 | 0.00 | 0.00 | 61 | 1019.9 |
| 20260830162227 | 78 | 173 | 6.0 | 13.0 | 0.00 | 0.00 | 0.00 | 60 | 1019.8 |
| 20260830161727 | 79 | 173 | 3.0 | 13.0 | 0.00 | 0.00 | 0.00 | 59 | 1020.0 |
| 20260830161227 | 79 | 221 | 3.0 | 13.0 | 0.00 | 0.00 | 0.00 | 59 | 1020.2 |
| 20260830160727 | 79 | 154 | 5.0 | 15.0 | 0.00 | 0.00 | 0.00 | 58 | 1020.2 |
| 20260830160228 | 80 | 202 | 6.0 | 15.0 | 0.00 | 0.00 | 0.00 | 57 | 1020.2 |
| 20260830155727 | 80 | 267 | 3.0 | 12.0 | 0.00 | 0.00 | 0.00 | 56 | 1020.2 |
| 20260830155228 | 80 | 241 | 5.0 | 12.0 | 0.00 | 0.00 | 0.00 | 56 | 1020.2 |
| 20260830154727 | 80 | 244 | 4.0 | 12.0 | 0.00 | 0.00 | 0.00 | 56 | 1020.2 |
| 20260830154227 | 80 | 227 | 5.0 | 12.0 | 0.00 | 0.00 | 0.00 | 56 | 1020.3 |
| 20260830153726 | 80 | 192 | 3.0 | 10.0 | 0.00 | 0.00 | 0.00 | 56 | 1020.3 |
| 20260830153226 | 79 | 169 | 6.0 | 10.0 | 0.00 | 0.00 | 0.00 | 57 | 1020.4 |
| 20260830152727 | 78 | 126 | 6.0 | 12.0 | 0.00 | 0.00 | 0.00 | 56 | 1020.4 |
| 20260830152227 | 79 | 120 | 4.0 | 12.0 | 0.00 | 0.00 | 0.00 | 55 | 1020.7 |
| 20260830151727 | 79 | 207 | 5.0 | 13.0 | 0.00 | 0.00 | 0.00 | 54 | 1020.8 |
| 20260830150727 | 80 | 148 | 6.0 | 12.0 | 0.00 | 0.00 | 0.00 | 53 | 1020.9 |
| 20260830150226 | 80 | 224 | 5.0 | 12.0 | 0.00 | 0.00 | 0.00 | 53 | 1020.8 |
| 20260830145727 | 79 | 219 | 5.0 | 12.0 | 0.00 | 0.00 | 0.00 | 54 | 1020.9 |
| 20260830145226 | 79 | 184 | 6.0 | 12.0 | 0.00 | 0.00 | 0.00 | 54 | 1021.0 |
| 20260830144726 | 80 | 233 | 5.0 | 12.0 | 0.00 | 0.00 | 0.00 | 55 | 1020.9 |
| 20260830144226 | 80 | 161 | 5.0 | 12.0 | 0.00 | 0.00 | 0.00 | 56 | 1020.9 |
| 20260830143726 | 79 | 148 | 3.0 | 9.0 | 0.00 | 0.00 | 0.00 | 56 | 1021.0 |
| 20260830143226 | 79 | 223 | 5.0 | 9.0 | 0.00 | 0.00 | 0.00 | 56 | 1020.9 |
| 20260830141226 | 77 | 163 | 3.0 | 9.0 | 0.00 | 0.00 | 0.00 | 59 | 1020.9 |
| 20260830140728 | 76 | 216 | 4.0 | 9.0 | 0.00 | 0.00 | 0.00 | 59 | 1021.0 |
| 20260830140226 | 76 | 223 | 5.0 | 10.0 | 0.00 | 0.00 | 0.00 | 59 | 1021.1 |
| 20260830135726 | 76 | 0 | 5.0 | 12.0 | 0.00 | 0.00 | 0.00 | 59 | 1021.1 |
| 20260830135228 | 76 | 0 | 5.0 | 12.0 | 0.00 | 0.00 | 0.00 | 59 | 1021.3 |
| 20260830134726 | 76 | 0 | 6.0 | 12.0 | 0.00 | 0.00 | 0.00 | 59 | 1021.3 |
| 20260830134226 | 75 | 0 | 3.0 | 10.0 | 0.00 | 0.00 | 0.00 | 59 | 1021.4 |
| 20260830133726 | 74 | 0 | 1.0 | 9.0 | 0.00 | 0.00 | 0.00 | 58 | 1021.6 |
| 20260830133226 | 75 | 0 | 3.0 | 9.0 | 0.00 | 0.00 | 0.00 | 57 | 1021.7 |
| 20260830132726 | 74 | 163 | 3.0 | 9.0 | 0.00 | 0.00 | 0.00 | 59 | 1021.8 |
| 20260830132226 | 73 | 182 | 3.0 | 9.0 | 0.00 | 0.00 | 0.00 | 60 | 1021.7 |
| 20260830131726 | 73 | 0 | 5.0 | 9.0 | 0.00 | 0.00 | 0.00 | 59 | 1021.8 |
| 20260830131226 | 74 | 155 | 3.0 | 9.0 | 0.00 | 0.00 | 0.00 | 59 | 1021.8 |
| 20260830130726 | 75 | 167 | 2.0 | 5.0 | 0.00 | 0.00 | 0.00 | 60 | 1021.8 |
| 20260830125727 | 73 | 156 | 3.0 | 8.0 | 0.00 | 0.00 | 0.00 | 61 | 1021.7 |
| 20260830125226 | 73 | 153 | 3.0 | 6.0 | 0.00 | 0.00 | 0.00 | 62 | 1021.7 |
| 20260830124727 | 73 | 175 | 2.0 | 6.0 | 0.00 | 0.00 | 0.00 | 63 | 1021.8 |
| 20260830124226 | 72 | 178 | 1.0 | 6.0 | 0.00 | 0.00 | 0.00 | 63 | 1021.8 |
| 20260830123726 | 72 | 181 | 2.0 | 6.0 | 0.00 | 0.00 | 0.00 | 62 | 1021.9 |
| 20260830123227 | 72 | 182 | 3.0 | 7.0 | 0.00 | 0.00 | 0.00 | 62 | 1022.0 |
| 20260830122726 | 72 | 125 | 2.0 | 7.0 | 0.00 | 0.00 | 0.00 | 63 | 1021.9 |
| 20260830122226 | 72 | 173 | 2.0 | 5.0 | 0.00 | 0.00 | 0.00 | 63 | 1021.9 |
| 20260830121727 | 71 | 163 | 2.0 | 5.0 | 0.00 | 0.00 | 0.00 | 64 | 1022.0 |
| 20260830120727 | 70 | 164 | 1.0 | 2.0 | 0.00 | 0.00 | 0.00 | 66 | 1021.8 |
| 20260830120227 | 70 | 163 | 1.0 | 2.0 | 0.00 | 0.00 | 0.00 | 67 | 1021.8 |
| 20260830115727 | 70 | 163 | 0.0 | 2.0 | 0.00 | 0.00 | 0.00 | 67 | 1021.8 |
| 20260830115226 | 69 | 163 | 1.0 | 3.0 | 0.00 | 0.00 | 0.00 | 67 | 1021.8 |
| 20260830114726 | 69 | 163 | 2.0 | 5.0 | 0.00 | 0.00 | 0.00 | 68 | 1021.8 |
| 20260830114226 | 69 | 158 | 1.0 | 5.0 | 0.00 | 0.00 | 0.00 | 68 | 1021.8 |
| 20260830113726 | 69 | 165 | 1.0 | 3.0 | 0.00 | 0.00 | 0.00 | 69 | 1021.9 |
| 20260830112726 | 68 | 189 | 1.0 | 2.0 | 0.00 | 0.00 | 0.00 | 69 | 1021.9 |
| 20260830111727 | 68 | 180 | 0.0 | 2.0 | 0.00 | 0.00 | 0.00 | 70 | 1021.7 |
| 20260830111227 | 68 | 180 | 0.0 | 1.0 | 0.00 | 0.00 | 0.00 | 71 | 1021.8 |
| 20260830110726 | 68 | 180 | 0.0 | 2.0 | 0.00 | 0.00 | 0.00 | 71 | 1021.8 |
| 20260830105727 | 67 | 180 | 1.0 | 2.0 | 0.00 | 0.00 | 0.00 | 72 | 1021.7 |
| 20260830105226 | 67 | 192 | 1.0 | 2.0 | 0.00 | 0.00 | 0.00 | 72 | 1021.5 |
| 20260830104726 | 67 | 173 | 0.0 | 1.0 | 0.00 | 0.00 | 0.00 | 72 | 1021.8 |
| 20260830104226 | 67 | 173 | 0.0 | 1.0 | 0.00 | 0.00 | 0.00 | 72 | 1021.7 |
| 20260830103726 | 67 | 173 | 0.0 | 2.0 | 0.00 | 0.00 | 0.00 | 73 | 1021.5 |
| 20260830103226 | 67 | 171 | 0.0 | 2.0 | 0.00 | 0.00 | 0.00 | 73 | 1021.5 |
| 20260830102726 | 67 | 171 | 1.0 | 2.0 | 0.00 | 0.00 | 0.00 | 74 | 1021.7 |
| 20260830102227 | 67 | 196 | 0.0 | 1.0 | 0.00 | 0.00 | 0.00 | 73 | 1021.6 |
| 20260830101226 | 67 | 196 | 0.0 | 2.0 | 0.00 | 0.00 | 0.00 | 72 | 1021.6 |
| 20260830100726 | 67 | 196 | 0.0 | 2.0 | 0.00 | 0.00 | 0.00 | 72 | 1021.8 |
| 20260830100227 | 67 | 196 | 0.0 | 2.0 | 0.00 | 0.00 | 0.00 | 72 | 1021.8 |
| 20260830095726 | 67 | 196 | 0.0 | 1.0 | 0.00 | 0.00 | 0.00 | 72 | 1021.7 |
| 20260830094725 | 67 | 194 | 1.0 | 3.0 | 0.00 | 0.00 | 0.00 | 73 | 1021.7 |
| 20260830093727 | 67 | 192 | 0.0 | 3.0 | 0.00 | 0.00 | 0.00 | 74 | 1021.8 |
| 20260830093226 | 67 | 192 | 0.0 | 2.0 | 0.00 | 0.00 | 0.00 | 75 | 1021.8 |
| 20260830092726 | 67 | 192 | 0.0 | 2.0 | 0.00 | 0.00 | 0.00 | 75 | 1021.8 |
| 20260830092226 | 67 | 196 | 0.0 | 2.0 | 0.00 | 0.00 | 0.00 | 75 | 1021.7 |
| 20260830091225 | 68 | 196 | 0.0 | 2.0 | 0.00 | 0.00 | 0.00 | 76 | 1021.8 |
| 20260830090726 | 68 | 196 | 0.0 | 2.0 | 0.00 | 0.00 | 0.00 | 76 | 1021.7 |
| 20260830090226 | 68 | 207 | 1.0 | 2.0 | 0.00 | 0.00 | 0.00 | 76 | 1021.8 |
| 20260830085726 | 68 | 194 | 0.0 | 3.0 | 0.00 | 0.00 | 0.00 | 76 | 1021.8 |
| 20260830084226 | 68 | 186 | 1.0 | 3.0 | 0.00 | 0.00 | 0.00 | 76 | 1021.9 |
| 20260830083726 | 68 | 151 | 1.0 | 3.0 | 0.00 | 0.00 | 0.00 | 77 | 1021.8 |
| 20260830082725 | 68 | 197 | 1.0 | 3.0 | 0.00 | 0.00 | 0.00 | 77 | 1022.1 |
| 20260830082226 | 68 | 177 | 0.0 | 2.0 | 0.00 | 0.00 | 0.00 | 77 | 1022.0 |
| 20260830081726 | 68 | 177 | 1.0 | 3.0 | 0.00 | 0.00 | 0.00 | 77 | 1022.0 |
| 20260830081226 | 68 | 171 | 1.0 | 3.0 | 0.00 | 0.00 | 0.00 | 77 | 1022.0 |
| 20260830080726 | 68 | 143 | 1.0 | 3.0 | 0.00 | 0.00 | 0.00 | 77 | 1022.0 |
| 20260830080225 | 68 | 178 | 1.0 | 3.0 | 0.00 | 0.00 | 0.00 | 77 | 1022.1 |
| 20260830075726 | 68 | 168 | 1.0 | 3.0 | 0.00 | 0.00 | 0.00 | 77 | 1022.1 |
| 20260830075225 | 68 | 171 | 1.0 | 3.0 | 0.00 | 0.00 | 0.00 | 76 | 1022.1 |
| 20260830074226 | 68 | 193 | 1.0 | 5.0 | 0.00 | 0.00 | 0.00 | 76 | 1022.2 |
| 20260830073726 | 68 | 157 | 2.0 | 7.0 | 0.00 | 0.00 | 0.00 | 76 | 1022.1 |
| 20260830072726 | 68 | 153 | 1.0 | 3.0 | 0.00 | 0.00 | 0.00 | 75 | 1022.2 |
| 20260830071726 | 68 | 196 | 1.0 | 7.0 | 0.00 | 0.00 | 0.00 | 75 | 1022.0 |
| 20260830070726 | 68 | 206 | 2.0 | 6.0 | 0.00 | 0.00 | 0.00 | 74 | 1022.1 |
| 20260830065226 | 68 | 165 | 1.0 | 5.0 | 0.00 | 0.00 | 0.00 | 72 | 1022.1 |
| 20260830064726 | 68 | 178 | 1.0 | 3.0 | 0.00 | 0.00 | 0.00 | 72 | 1022.1 |
| 20260830064226 | 68 | 185 | 1.0 | 3.0 | 0.00 | 0.00 | 0.00 | 72 | 1022.0 |
| 20260830063725 | 69 | 165 | 1.0 | 3.0 | 0.00 | 0.00 | 0.00 | 71 | 1022.2 |
| 20260830062726 | 69 | 207 | 1.0 | 3.0 | 0.00 | 0.00 | 0.00 | 71 | 1022.0 |
| 20260830062226 | 69 | 198 | 2.0 | 3.0 | 0.00 | 0.00 | 0.00 | 70 | 1022.1 |
| 20260830061726 | 69 | 180 | 2.0 | 3.0 | 0.00 | 0.00 | 0.00 | 70 | 1022.0 |
| 20260830061226 | 69 | 216 | 2.0 | 3.0 | 0.00 | 0.00 | 0.00 | 69 | 1022.0 |
| 20260830060225 | 69 | 241 | 1.0 | 3.0 | 0.00 | 0.00 | 0.00 | 69 | 1022.1 |
| 20260830055726 | 69 | 212 | 2.0 | 3.0 | 0.00 | 0.00 | 0.00 | 68 | 1022.1 |
| 20260830055226 | 69 | 200 | 1.0 | 3.0 | 0.00 | 0.00 | 0.00 | 68 | 1022.1 |
| 20260830054225 | 70 | 211 | 1.0 | 5.0 | 0.00 | 0.00 | 0.00 | 67 | 1022.0 |
| 20260830053726 | 70 | 195 | 2.0 | 5.0 | 0.00 | 0.00 | 0.00 | 67 | 1022.0 |
| 20260830052226 | 70 | 169 | 0.0 | 3.0 | 0.00 | 0.00 | 0.00 | 65 | 1021.9 |
| 20260830051726 | 70 | 188 | 1.0 | 3.0 | 0.00 | 0.00 | 0.00 | 64 | 1021.8 |
| 20260830051225 | 71 | 145 | 1.0 | 3.0 | 0.00 | 0.00 | 0.00 | 64 | 1021.9 |
| 20260830050725 | 71 | 172 | 1.0 | 2.0 | 0.00 | 0.00 | 0.00 | 63 | 1021.8 |
| 20260830050226 | 71 | 185 | 0.0 | 3.0 | 0.00 | 0.00 | 0.00 | 62 | 1021.8 |
| 20260830045725 | 71 | 186 | 0.0 | 3.0 | 0.00 | 0.00 | 0.00 | 62 | 1021.8 |
| 20260830045225 | 71 | 192 | 1.0 | 3.0 | 0.00 | 0.00 | 0.00 | 61 | 1021.7 |
| 20260830044726 | 71 | 173 | 1.0 | 5.0 | 0.00 | 0.00 | 0.00 | 60 | 1021.9 |
| 20260830044226 | 71 | 217 | 3.0 | 5.0 | 0.00 | 0.00 | 0.00 | 59 | 1021.8 |
| 20260830043726 | 71 | 177 | 2.0 | 5.0 | 0.00 | 0.00 | 0.00 | 58 | 1021.8 |
| 20260830043226 | 72 | 148 | 1.0 | 3.0 | 0.00 | 0.00 | 0.00 | 57 | 1021.7 |
| 20260830042728 | 72 | 196 | 1.0 | 3.0 | 0.00 | 0.00 | 0.00 | 57 | 1021.7 |
| 20260830042228 | 72 | 187 | 1.0 | 5.0 | 0.00 | 0.00 | 0.00 | 56 | 1021.7 |
| 20260830040728 | 72 | 186 | 1.0 | 5.0 | 0.00 | 0.00 | 0.00 | 56 | 1021.6 |
| 20260830040228 | 72 | 183 | 2.0 | 3.0 | 0.00 | 0.00 | 0.00 | 56 | 1021.7 |
| 20260830035228 | 72 | 206 | 1.0 | 3.0 | 0.00 | 0.00 | 0.00 | 55 | 1021.5 |
| 20260830034228 | 72 | 211 | 2.0 | 3.0 | 0.00 | 0.00 | 0.00 | 54 | 1021.6 |